Погода в Тамалакане

Россия / Республика Саха (Якутия)     63°30′52″N   120°50′11″E
темп.,
°C
ветер,
м/с
пор.,
м/с
влажн.,
%
обл.,
%
осадки,
мм/ч
давл.,
гПа
погр.,
м
3 марта, ср
ср300:00−36св1210085 0.0 102519
03:00−38св1210076 0.0 102519
06:00−39св1110050 0.0 102518
09:00−39ссз119851 0.0 102518
12:00−33ссз239178 0.0 1025292
15:00−30сз239189 0.0 1024424
18:00−32зсз229596 0.0 102425
21:00−33зсз259597 0.0 1025163
4 марта, чт
чт400:00−32з3697100 0.1 1025228
03:00−32з4897100 0.2 1025328
06:00−31зсз4995100 0.1 1025437
09:00−32зсз41093100 0.2 1026446
12:00−30зсз51092100 0.0 1026507
15:00−28зсз51091100 0.0 1026622
18:00−28зсз31093100 0.0 1028483
21:00−30зсз31096100 0.0 1029296
5 марта, пт
пт500:00−31з399693 0.0 1030249
03:00−33з399688 0.0 1032221
06:00−35з399434 0.0 1032218
09:00−35з399317 0.0 1033249
12:00−30з36910 0.0 1032362
15:00−27з36914 0.0 1031462
18:00−29з229528 0.0 103119
21:00−32зюз129814 0.0 103119
6 марта, сб
сб600:00−34юз111000 0.0 103019
03:00−34ююв111000 0.0 103019
06:00−34юв12990 0.0 102919
09:00−32вюв12960 0.0 102820
12:00−25вюв23925 0.0 1026269
15:00−21в249127 0.0 1024367
18:00−23в359210 0.0 1023130
21:00−27в35945 0.0 102386
7 марта, вс
вс700:00−27в33932 0.0 102260
03:00−28в33911 0.0 102164
06:00−28в36890 0.0 102097
09:00−26в358914 0.0 1020132
12:00−19вюв369083 0.0 1017302
15:00−16вюв379391 0.1 1016378
18:00−15вюв3695100 0.3 1015308
21:00−15вюв3696100 0.4 1014188